Showing default

ORBASTRO-PC-1, 58258

Orbit data source: Space-Track

ORBASTRO-PC-1, 58258 is a payload satellite owned by OrbAstro (UK) in SSO that was launched on Sat, 11 Nov 2023 UTC via an FALCON 9 launch vehicle from the Air Force Western Test Range (AFWTR). Payload-class satellites include a variety of spacecraft equipped with specific instruments for various scientific and technological missions. These include communications satellites like Starlink; space stations such as the ISS; scientific satellites like the Hubble; Earth observation satellites from companies like Planet Labs, Umbra, and HawkEye 360; GPS; miniature CubeSats for education and research; and military/defense satellites.

Loading next visibility...
Identifier
58258, 2023-174C
Orbit
SSO
Country
Flag of UKUK
Related business
Manufacturer
OrbAstro
Mission
Operational Commercial Technology
Bus & Motor
CUBESAT 6U, Unknown motor
Mass
~10 kg wet, ~10 kg dry
Launch date (UTC)
2023-11-11 (2 years ago)
Launch vehicle
FALCON 9
Launch site
Air Force Western Test Range (AFWTR)
Object type
Payload
Rocket body
Debris
Shape & HBR
Box + 2 Pan, 0.1 m
Radar Cross Section
0.080 m², Small (<0.1 m²)

Expand to show TLE details & history
Last TLE update: 9 hours ago

TLE from 9 hours ago
0 ORBASTRO-PC-1
1 58258U 23174C   25289.18158977  .00025725  00000-0  72485-3 0  9997
2 58258  97.4013   6.9031 0007439 338.3993  21.6936 15.36393080107850
Epoch: 2025-10-16T04:21Z
TLE epoch observation values (Epoch: 2025-10-16T04:21:29.356Z)
Latitude
-0.00001°
Longitude
-83.41421°
Altitude
455.174 km
Speed
7.642 km/s
True Right ascension
00h 27m 36s
True Declination
0° 00' 00"
Sunlit
Object was in full shadow at epoch
Visualization orbit readout
Latitude
Unknown
Longitude
Unknown
Altitude
Unknown
Speed
Unknown
Apparent Right ascension
Unknown
Apparent Declination
Unknown
Sunlit
N/A
Visualization observer readout
Local Sidereal Time
08:18:26
Azimuth
Unknown
Elevation
Unknown
Doppler factor
Unknown
Orbital elements
Apogee altitude
458.812 km
Perigee altitude
448.647 km
Semi-major axis
6,831.867 km
Eccentricity
0.00074
Inclination
97.4013°
RAAN
6.9031°
Arg. of periapsis
338.3993°
True anomaly
21.72514°
Mean anomaly
21.6936°
Eccentric anomaly
21.70937°
Mean motion
3.84356 °/min
Orbital period
93.66 mins
BSTAR
0.00072485
Loading maneuver chart data...
Computing Atmospheric mass density...

Documentation

Showing up to 5 results
|